GFSNE_con_3kmhel_021.txt.gz
Helicity
155 92 32 35 25 27 59 65 53 97 99 88 89 73 70 79 62 39 38 75 92 108 126 144 159 183 201 231 235 191 156 106 163 177 147 121 88 168
-67 -140 -195 -141 -46 -18 -8 4 21 41 57 74 80 87 71 74 82 56 34 45 60 90 103 120 132 172 208 225 235 233 199 147 144 186 168 140 58 145
20 13 10 8 22 36 57 76 86 101 107 81 96 102 102 93 88 88 80 67 63 64 86 101 134 160 187 210 232 220 218 174 114 150 186 138 121 49
53 54 51 67 70 84 93 90 105 111 123 100 106 121 101 85 90 83 84 78 75 50 62 69 89 119 140 158 194 192 184 179 128 82 166 188 151 128
58 60 64 76 79 84 82 92 98 105 115 128 116 111 107 98 82 78 75 63 70 46 46 63 77 94 124 139 155 191 156 144 152 110 48 201 95 204
55 58 65 68 66 69 77 82 89 99 102 114 112 100 105 104 110 93 84 73 59 70 64 75 100 102 115 138 155 178 190 135 122 113 86 63 111 141
64 70 76 75 63 64 87 80 79 90 101 116 112 97 95 96 87 70 74 77 83 88 89 88 100 104 113 96 122 156 161 163 124 118 82 69 60 120
54 49 50 44 42 49 56 62 80 100 103 109 99 92 65 73 78 87 86 79 65 73 63 75 99 105 95 107 123 157 184 172 172 156 113 78 68 74
46 41 46 54 49 58 65 66 54 44 69 77 78 75 49 56 59 71 78 89 71 64 76 78 94 93 100 108 144 166 185 176 168 176 151 127 73 72
31 33 36 36 52 52 47 49 40 52 61 100 100 77 64 44 53 57 56 65 75 71 70 68 75 72 77 84 80 129 176 180 185 203 181 126 109 78
26 30 37 47 24 20 19 -37 37 53 71 74 69 48 40 43 46 70 87 76 83 71 68 78 64 65 72 83 96 94 107 134 180 209 193 153 127 111
21 22 30 25 13 -36 -4 56 48 53 47 42 38 44 52 53 8 82 82 70 69 64 51 65 52 60 60 41 74 89 107 118 149 187 191 165 135 107
14 17 19 13 -5 4 -5 -52 -6 20 47 45 27 5 27 43 44 52 67 77 58 59 44 75 73 71 72 102 125 135 89 133 166 175 186 164 124 97
-3 -2 5 12 -1 -23 -32 -10 6 8 23 28 25 13 22 46 56 65 57 62 64 35 27 57 83 82 76 70 96 80 103 147 169 180 203 172 135 125
-17 -5 2 -1 -14 -22 4 15 7 0 6 18 12 13 22 25 23 38 57 51 67 55 49 60 66 58 74 72 83 90 108 96 132 169 192 186 146 132
2 -12 -16 -23 -31 -1 5 0 1 -2 13 10 9 21 27 26 30 14 19 36 19 19 31 38 45 43 52 53 60 84 97 125 108 129 151 169 146 116
-6 -23 -22 -19 -9 17 13 10 11 9 4 -4 7 17 22 25 32 40 36 27 5 8 13 24 25 25 33 36 57 63 81 86 88 108 110 125 108 74
-26 -18 -10 -14 -2 17 31 30 22 26 26 24 3 0 8 12 23 41 42 28 -14 -32 -7 5 10 23 38 52 40 41 65 64 65 89 99 95 112 87
-14 -7 -5 -3 8 22 27 16 12 7 13 15 0 -8 -4 -1 2 3 16 37 31 20 -34 -24 -14 -9 13 30 58 93 68 71 77 69 75 99 116 92
-10 -1 6 8 14 20 17 15 8 -9 -22 -19 5 -16 -16 -8 -2 -1 8 13 9 12 18 23 10 11 19 29 54 54 116 74 71 76 75 113 107 85
6 9 12 14 19 20 17 11 4 -2 -12 -20 -8 0 -21 -7 -12 1 6 5 14 13 17 21 15 33 22 26 31 54 105 130 87 76 83 92 98 88
8 14 17 12 16 21 13 0 -4 -4 -2 -11 -16 0 -7 -10 -10 -2 5 7 10 14 14 7 -1 -10 35 28 31 45 71 65 87 111 129 98 82 77
19 20 18 14 19 18 7 6 6 5 1 3 -4 -16 -10 -16 -9 -5 -1 7 12 11 8 8 -4 -6 -6 50 49 49 49 59 82 89 98 123 53 41

GFSNE_con_3kmhel_024.txt.gz
Helicity
21 18 50 45 38 61 82 70 110 167 184 151 148 101 107 79 92 91 85 83 39 44 75 104 130 137 148 148 149 156 159 161 158 147 110 122 159 174
33 19 6 -2 -19 -22 -8 1 2 18 73 74 83 86 95 113 109 85 69 77 75 57 75 94 116 125 121 150 178 191 189 176 164 165 140 118 128 152
57 45 47 43 33 25 4 4 7 25 23 49 62 67 71 67 75 81 74 62 65 24 17 84 104 112 130 149 162 176 186 181 167 154 146 131 117 110
56 59 54 59 58 51 49 42 50 53 59 42 55 74 71 72 73 68 68 78 86 86 61 32 90 108 128 134 132 133 146 157 142 144 134 140 136 114
61 57 51 55 53 58 61 70 80 81 81 82 65 71 74 74 77 78 81 78 77 79 92 95 86 90 98 99 102 110 119 126 135 127 129 128 113 137
59 57 60 62 60 61 65 70 69 75 83 98 97 81 81 73 80 82 76 72 74 75 71 74 106 97 106 104 97 98 114 130 131 123 112 126 104 93
58 64 67 79 90 84 94 87 87 90 97 115 113 86 88 100 93 77 81 75 86 102 94 116 120 97 109 68 57 73 75 82 100 107 111 103 122 83
68 66 61 42 38 51 60 66 77 96 110 125 111 98 73 79 87 95 89 78 67 76 71 69 90 99 110 127 143 123 109 108 132 134 123 124 117 102
59 49 42 47 62 60 59 73 71 63 78 66 67 66 60 69 73 78 82 82 66 62 77 81 87 82 95 111 116 119 114 124 132 134 107 120 129 93
41 31 37 35 40 56 49 48 47 48 59 88 83 65 62 77 71 72 68 69 70 67 83 78 95 79 83 93 91 91 80 104 135 146 119 111 123 119
37 30 16 12 16 34 35 34 32 33 36 58 57 48 39 32 33 65 84 83 74 60 62 78 89 89 82 79 88 62 68 84 98 111 109 106 131 134
40 19 12 8 25 22 25 26 10 -26 13 15 9 28 49 39 38 54 58 60 51 49 45 62 70 82 73 54 56 74 66 58 78 92 108 106 131 159
15 7 3 33 54 14 3 -29 -36 -12 6 13 23 30 36 29 26 51 55 71 55 42 17 73 74 60 74 88 105 94 91 77 82 86 99 107 111 146
-14 -21 -8 5 1 -4 -22 -22 2 9 4 10 16 28 32 33 32 41 50 53 51 24 15 78 79 66 76 94 85 82 78 51 45 95 147 145 121 128
-29 -15 -10 -13 -12 -29 -33 11 11 -7 3 10 15 6 6 15 17 25 33 29 22 18 25 32 71 45 78 72 84 82 99 61 44 69 114 122 125 148
-16 -16 -22 -21 -23 -23 -2 3 2 0 3 7 8 18 28 30 26 24 29 36 40 23 38 39 39 35 49 46 52 65 78 85 44 55 104 130 175 215
13 -15 -15 -12 -12 1 13 9 3 7 11 18 17 17 10 9 22 35 35 38 51 35 16 32 28 28 27 26 42 44 55 66 74 63 80 100 95 103
-13 -13 -1 5 10 19 22 21 4 4 15 28 23 21 -7 -7 -10 12 32 31 20 16 25 4 22 33 39 25 6 25 40 53 69 78 71 81 94 54
-9 -4 6 15 23 30 32 32 16 -1 5 11 23 19 -17 -34 -24 -21 -13 13 33 33 22 10 8 -17 -1 17 67 86 26 36 58 66 67 66 65 108
-8 -1 11 20 26 35 39 36 30 15 -2 -9 13 19 -1 -32 -40 -35 -25 -20 -14 -9 -2 4 11 15 13 21 71 67 71 39 37 51 55 80 125 116
-3 1 6 14 19 30 39 36 28 17 10 0 -1 14 13 4 -22 -31 -12 -9 -6 0 1 -6 -19 0 14 -10 -11 12 37 101 111 93 93 66 65 59
2 6 7 8 12 25 30 24 18 14 16 11 2 1 13 3 3 -10 -17 -8 1 7 0 -12 -19 -17 -27 31 34 17 13 29 74 102 113 107 105 109
12 13 10 10 14 24 20 20 19 14 8 9 11 3 -2 12 7 -2 -4 -6 -3 -1 -2 -5 -18 -30 -26 -31 48 26 22 27 38 12 29 63 56 53

GFSNE_con_3kmhel_030.txt.gz
Helicity
140 158 91 91 90 88 63 52 29 35 74 86 71 87 49 243 149 309 234 135 93 85 96 68 103 132 134 135 135 131 119 100 94 108 118 128 137 159
113 84 89 103 97 119 108 108 87 47 63 96 71 53 86 93 135 263 238 163 65 61 64 58 64 75 96 121 113 111 117 126 85 78 102 111 120 126
120 109 108 97 111 105 96 96 102 106 111 78 61 56 47 56 71 87 133 139 119 64 63 54 57 71 83 93 91 96 93 94 95 92 80 114 124 117
146 124 116 112 108 81 74 73 74 69 70 47 52 60 39 49 48 55 64 80 103 108 79 65 65 77 79 85 91 92 88 88 88 86 95 112 127 120
122 92 85 79 77 75 72 77 79 81 82 65 43 54 50 39 43 51 66 82 90 94 90 56 60 39 35 52 74 109 102 92 99 104 88 78 68 87
61 79 78 81 82 88 109 85 73 78 79 80 69 69 65 54 74 77 97 92 101 100 86 125 142 119 113 89 78 68 83 87 88 90 92 84 78 66
58 66 79 76 71 87 95 95 85 94 91 74 62 71 91 85 87 73 78 71 78 84 92 96 76 87 120 71 65 51 43 93 123 136 135 136 108 88
55 66 83 74 78 109 70 97 125 106 94 77 43 29 19 23 29 37 32 45 45 57 49 36 61 48 52 69 81 50 34 43 70 78 100 114 136 119
95 98 83 84 83 83 74 64 23 18 36 56 47 47 53 59 56 58 63 72 72 73 78 70 80 73 76 73 64 59 62 43 34 27 47 59 73 84
108 83 80 61 53 58 59 57 61 60 52 57 75 76 76 71 56 63 64 59 58 73 102 74 89 82 89 93 55 54 57 59 55 43 22 30 51 66
85 84 71 61 50 63 43 23 21 26 23 20 33 30 17 20 41 67 63 82 67 58 107 91 104 95 97 101 119 70 58 60 59 70 62 57 56 61
70 59 40 47 63 73 39 7 -12 -8 -11 -12 -7 0 3 8 11 59 81 26 53 55 82 86 54 76 62 66 95 119 111 70 77 100 91 67 61 101
76 58 51 22 29 -25 -52 -59 -45 -30 -19 -10 -5 15 24 26 32 18 32 73 70 87 98 73 85 90 86 60 66 69 77 61 62 101 71 72 70 71
59 37 -39 2 10 -9 -12 -11 -8 -23 -16 14 36 34 15 2 -11 -32 9 40 74 104 43 79 79 92 94 77 51 48 46 49 69 79 71 68 54 43
-20 -14 23 48 -11 -15 11 18 12 34 77 27 8 8 -5 6 10 8 14 7 35 66 45 42 63 59 87 71 39 40 54 36 23 30 51 43 50 61
-11 29 66 -40 -26 13 8 7 28 5 6 6 -3 21 31 7 2 37 1 13 6 22 53 70 79 86 62 90 51 19 25 33 23 1 50 56 40 40
14 29 -42 -40 -20 6 10 19 22 4 0 13 22 21 13 14 10 12 23 23 30 23 18 39 78 134 138 89 34 9 17 21 23 19 49 38 22 34
-4 -34 -35 -30 -14 16 2 11 32 34 22 28 26 8 9 13 29 31 0 -4 23 20 14 4 12 106 83 57 121 8 -9 -16 11 11 31 51 40 29
-26 -26 -30 -21 -13 -3 1 20 36 35 12 20 24 23 19 37 48 5 27 35 30 25 33 26 36 33 20 9 21 82 17 -15 -28 -2 17 33 67 50
-18 -20 -23 -17 -15 -6 15 43 64 17 1 16 23 32 52 77 26 18 29 35 42 59 59 24 -3 -4 9 6 -14 2 35 33 11 -8 -2 38 105 94
-16 -14 -19 -17 -14 2 24 28 35 10 -9 7 20 46 80 40 39 26 31 44 28 33 31 27 29 23 45 36 -1 26 -13 14 26 30 28 32 103 50
-23 -7 -6 -8 -1 16 22 14 11 3 4 8 26 56 93 31 49 25 29 42 34 36 31 35 27 25 19 16 -9 -30 -23 -19 10 44 69 78 88 58
-25 -14 -1 0 5 23 25 24 10 5 12 20 36 67 83 33 48 26 9 23 19 15 29 59 39 32 34 26 15 -16 9 1 8 -15 14 72 59 52

GFSNE_con_3kmhel_033.txt.gz
Helicity
48 67 90 95 86 17 45 108 135 116 43 40 35 44 53 2 0 96 300 356 253 335 350 288 137 148 77 47 58 91 80 81 115 153 146 145 160 160
100 121 130 141 109 109 87 90 112 105 86 59 87 85 78 66 5 10 16 196 417 252 220 272 206 68 46 55 82 91 84 65 67 96 119 122 137 153
154 145 108 97 80 71 90 83 78 84 100 55 64 32 36 42 48 50 56 -26 182 306 211 120 67 44 52 60 91 119 102 62 56 50 69 91 115 130
168 140 106 73 33 60 85 74 66 50 55 34 -5 6 3 -4 -9 1 41 40 4 28 25 69 84 78 62 99 108 106 125 90 52 31 17 33 89 117
98 80 53 33 47 71 85 91 96 73 64 34 -2 -25 -32 -7 -7 -28 -22 -4 37 42 58 47 34 31 36 32 46 65 73 103 96 59 32 20 25 63
54 42 40 43 73 94 99 101 97 101 74 50 27 -21 -39 -30 -1 -12 -2 30 77 130 140 146 175 153 103 58 55 80 77 79 86 90 88 62 40 46
20 21 31 56 85 111 129 117 92 80 68 70 54 27 4 4 8 -9 -17 -3 3 -5 17 39 42 53 81 96 71 52 50 63 65 67 69 66 63 38
24 36 57 72 95 130 115 79 85 75 56 40 20 11 30 22 41 45 19 -17 -50 -59 -33 -6 8 26 26 40 49 40 27 21 17 19 0 14 30 58
84 85 80 79 87 86 72 74 62 36 28 19 -17 -4 25 51 63 61 60 45 38 53 36 10 35 47 56 51 45 51 53 40 36 27 26 40 57 61
88 89 86 83 81 75 67 61 61 53 50 52 34 28 31 44 67 49 61 47 45 48 63 22 46 38 65 78 59 60 64 61 59 48 46 59 61 65
83 80 63 65 50 63 79 51 43 34 35 24 21 30 12 -7 9 47 61 47 35 58 109 101 77 75 86 98 99 74 75 77 77 72 68 72 67 72
87 63 37 31 24 45 27 -15 -36 -23 -36 -21 -15 -13 -15 -7 2 25 51 58 52 58 85 103 87 94 110 62 81 108 126 113 90 84 75 76 71 106
82 63 48 -1 7 20 -4 -45 -21 -13 -10 -15 -6 4 17 35 45 38 98 104 31 51 96 129 88 89 71 65 75 65 69 89 106 109 89 91 99 100
72 36 40 46 31 -8 -14 14 6 -19 -1 32 41 64 82 53 20 18 5 -20 4 29 14 42 32 48 68 94 80 74 75 73 98 97 103 79 65 72
42 27 37 10 -23 -18 37 39 34 26 7 23 20 8 25 50 50 16 45 2 10 30 68 48 35 28 22 -9 36 49 46 53 67 63 59 61 81 77
57 51 39 21 -29 1 9 18 22 12 -7 0 14 25 21 19 15 17 18 22 -9 4 20 76 89 62 40 50 43 27 56 39 54 66 46 42 51 57
39 45 27 -38 -18 -8 -17 18 36 39 22 38 34 17 25 30 27 40 19 -1 0 8 3 4 40 77 111 111 91 73 58 48 45 59 45 35 41 42
10 7 -22 -28 -21 -17 -7 27 43 51 15 35 45 28 28 43 53 53 4 5 3 20 23 33 11 -3 13 32 55 33 54 14 -28 9 30 19 42 74
-7 -11 -22 -19 -23 -19 -8 11 38 46 6 19 28 53 82 109 67 33 32 39 55 57 64 26 7 18 33 37 25 30 6 21 21 6 7 14 13 15
-20 -16 -14 -16 -19 -10 6 29 47 15 3 18 28 67 105 112 62 37 39 45 43 47 51 37 25 19 44 50 28 18 24 1 18 21 3 6 18 55
-45 -19 -11 -12 -7 3 20 29 22 8 5 12 40 62 94 92 89 53 42 49 35 26 32 39 43 46 51 43 36 -11 -35 11 2 -2 14 30 18 53
-41 -35 -15 -3 0 14 26 27 13 12 20 24 44 57 73 75 76 76 34 21 27 9 14 42 57 36 37 35 25 -11 -37 19 25 37 48 58 69 63
-26 -34 -25 -14 -10 14 24 29 27 19 19 27 40 55 56 76 55 58 40 42 14 16 48 55 60 53 47 49 31 12 0 -16 30 26 13 52 64 75

GFSNE_con_3kmhel_039.txt.gz
Helicity
133 135 130 113 83 83 126 152 134 115 97 72 64 26 60 51 66 75 62 45 39 20 83 308 241 189 362 358 405 406 234 162 145 142 142 138 145 173
153 147 140 146 160 152 110 120 127 118 92 79 73 37 13 23 26 48 65 53 44 -0 -13 87 325 184 293 334 500 521 506 207 149 125 138 136 127 119
177 173 145 132 124 109 95 105 84 122 108 84 110 82 75 61 52 51 49 66 59 33 18 -19 104 242 158 186 168 244 379 391 309 135 115 105 115 97
143 119 98 93 90 92 104 109 120 124 138 110 98 120 101 71 36 34 29 49 75 78 109 17 -19 86 199 216 258 242 202 129 152 100 40 57 53 74
104 98 87 85 89 94 100 113 120 118 134 126 106 111 97 76 57 43 29 24 43 92 99 109 115 -1 70 114 144 197 258 275 164 109 50 -6 45 -28
92 90 93 93 95 97 102 115 117 122 126 128 111 104 101 79 86 46 36 26 26 54 74 75 88 99 71 65 49 104 152 199 224 171 66 43 14 -16
97 99 102 102 83 108 125 108 104 105 103 95 88 93 116 105 77 55 37 23 23 43 71 63 72 92 123 142 106 56 20 46 122 129 153 120 61 36
103 105 118 108 119 113 99 86 96 108 96 94 82 86 86 108 83 55 36 30 9 32 53 96 113 76 76 95 113 126 131 98 63 73 68 69 44 35
114 116 128 143 123 129 99 82 93 82 93 87 67 68 74 97 88 63 49 50 49 59 46 72 86 76 83 80 68 79 96 109 113 101 96 91 64 71
112 122 127 127 114 88 86 78 69 64 66 83 85 68 61 61 79 62 50 37 33 35 48 52 93 102 110 98 79 72 75 83 96 106 94 89 77 63
79 101 104 102 55 31 62 92 88 73 45 25 26 4 15 20 23 53 49 34 33 30 80 69 91 103 107 120 110 61 64 78 77 72 68 72 85 79
93 94 87 61 34 40 73 56 56 44 39 33 -27 -23 -10 2 7 7 27 36 40 32 63 81 94 72 65 60 80 86 111 120 97 93 99 93 87 125
97 109 108 42 44 35 37 61 46 23 2 -13 -1 5 9 7 3 1 15 38 38 41 91 58 36 64 42 60 70 60 78 142 157 147 122 108 87 82
96 105 80 32 29 35 43 25 22 24 -17 -15 -6 6 10 19 27 26 15 17 29 54 35 47 38 63 61 47 56 64 65 137 172 154 125 121 110 93
87 72 46 35 36 52 34 29 35 16 -7 -15 -6 -5 4 6 17 17 21 11 3 7 2 26 22 50 55 57 56 61 62 73 76 103 137 132 120 120
70 69 43 47 53 56 69 49 26 11 -1 12 17 16 11 11 23 20 22 41 21 16 5 13 36 31 16 7 -3 -3 -19 42 53 51 70 85 107 114
77 67 24 29 32 20 1 -1 -12 -13 -2 22 20 28 33 42 53 50 18 16 3 16 29 30 -10 2 21 21 19 37 27 51 52 50 51 52 68 87
74 70 16 3 9 -8 -25 -24 -16 -6 5 13 21 37 52 62 50 36 16 9 12 13 10 28 29 7 -3 15 28 15 28 21 19 26 50 56 20 42
73 67 25 -15 -11 -17 -22 -23 -12 12 4 6 11 28 48 57 50 38 44 27 28 29 37 21 28 16 -2 -5 22 43 29 12 11 10 25 24 40 19
72 69 45 -26 -30 -16 -15 -15 -11 -2 5 -0 3 12 33 48 59 45 38 29 30 26 30 19 11 -1 -15 -11 5 15 24 5 -8 -7 2 -6 -12 -16
80 71 66 1 -37 -29 -17 -15 -12 -3 -2 -0 3 5 20 26 47 52 45 37 21 4 8 23 30 19 19 24 22 26 28 8 -10 -27 -22 -6 2 11
84 75 64 56 -24 -37 -27 -17 -16 -8 1 6 11 12 19 15 17 33 31 29 22 15 17 42 52 31 31 30 19 28 28 16 -0 -5 1 7 25 27
90 84 71 69 46 -21 -31 -23 -15 -11 -8 5 15 10 13 22 26 21 15 13 19 27 24 41 43 26 27 23 28 43 39 33 26 23 21 16 23 44